Showing default

CORVUS BC4, 43767

Orbit data source: Space-Track

CORVUS BC4, 43767 is a payload satellite owned by Astro Digital (US) in SSO that was launched on Mon, 03 Dec 2018 UTC via an FALCON 9 launch vehicle from the Air Force Western Test Range (AFWTR). Payload-class satellites include a variety of spacecraft equipped with specific instruments for various scientific and technological missions. These include communications satellites like Starlink; space stations such as the ISS; scientific satellites like the Hubble; Earth observation satellites from companies like Planet Labs, Umbra, and HawkEye 360; GPS; miniature CubeSats for education and research; and military/defense satellites.

Loading next visibility...
Identifier
43767, 2018-099K
Orbit
SSO
Country
Flag of USUS
Related business
Manufacturer
Astro Digital
Mission
Operational Commercial Imaging
Bus & Motor
CUBESAT 6U, Unknown motor
Mass
10 kg wet, 10 kg dry
Launch date (UTC)
2018-12-03 (8 years ago)
Launch vehicle
FALCON 9
Launch site
Air Force Western Test Range (AFWTR)
Object type
Payload
Rocket body
Debris
Shape & HBR
Box + 2 Pan, 0.2 m
Radar Cross Section
0.092 m², Medium (>0.1 m² and < 1m²)

Expand to show TLE details & history
Last TLE update: 2 days ago

TLE from 2 days ago
0 CORVUS BC4
1 43767U 18099K   26171.36386979  .00002950  00000-0  17292-3 0  9992
2 43767  97.4063 214.2513 0007970   2.4848 357.6421 15.12515737412883
Epoch: 2026-06-20T08:43Z
TLE epoch observation values (Epoch: 2026-06-20T08:43:58.349Z)
Latitude
-0.00007°
Longitude
174.67863°
Altitude
526.11 km
Speed
7.603 km/s
True Right ascension
14h 17m 00s
True Declination
0° 00' 00"
Sunlit
Object was in full shadow at epoch
Visualization orbit readout
Latitude
Unknown
Longitude
Unknown
Altitude
Unknown
Speed
Unknown
Apparent Right ascension
Unknown
Apparent Declination
Unknown
Sunlit
N/A
Visualization observer readout
Local Sidereal Time
21:38:42
Azimuth
Unknown
Elevation
Unknown
Doppler factor
Unknown
Orbital elements
Apogee altitude
531.009 km
Perigee altitude
520.005 km
Semi-major axis
6,903.644 km
Eccentricity
0.0008
Inclination
97.4063°
RAAN
214.2513°
Arg. of periapsis
2.4848°
True anomaly
357.63834°
Mean anomaly
357.6421°
Eccentric anomaly
357.64022°
Mean motion
3.78378 °/min
Orbital period
95.14 mins
BSTAR
0.00017292
Loading maneuver chart data...
Computing Atmospheric mass density...
Loading historical data...
Loading historical data...
Loading historical data...
Loading historical data...
Loading historical data...
Loading historical data...
Loading historical data...

Documentation

Showing up to 5 results
|